Weather History for Lanai City, HI

Change the Weather History Date:

Monday, February 11, 2013

  Actual Average Record
Temperature  
Mean Temperature 70 °F -  
Max Temperature 75 °F 76 °F 82 °F (2004)
Min Temperature 64 °F 59 °F 52 °F (1951)
Cooling Degree Days 4    
Growing Degree Days 20 (Base 50)    
Moisture  
Dew Point 61 °F    
Average Humidity 78    
Maximum Humidity 88    
Minimum Humidity 64    
Precipitation  
Precipitation 0.00 in - - ()
Sea Level Pressure  
Sea Level Pressure 30.17 in    
Wind  
Wind Speed 17 mph (NE)    
Max Wind Speed 26 mph    
Max Gust Speed 34 mph    
Visibility 10 miles    
Events      
Averages and records for this station are not official NWS values.
T = Trace of Precipitation, MM = Missing Value Source: NWS Daily Summary

Daily Weather History Graph

Daily Weather History Graph

Search for Another Location

Airport:

Trip Planner

Search our weather history database for the weather conditions in past years. The results will help you decide how hot, cold, wet, or windy it might be!

Date:

Astronomy

Feb. 11, 2013 Rise Set
Actual Time 6:59 AM HST 6:24 PM HST
Civil Twilight 6:37 AM HST 6:47 PM HST
Nautical Twilight 6:10 AM HST 7:13 PM HST
Astronomical Twilight 5:44 AM HST 7:39 PM HST
Moon 7:50 AM HST (2/11) 8:09 PM HST (2/11)
Length of Visible Light 12h 10m
Length of Day
11h 24m
Waxing Crescent, 3% of the Moon is Illuminated
Feb 11
Waxing Crescent
Feb 17
First Quarter
Feb 25
Full
Mar 4
Last Quarter
Mar 11
New

Hourly Weather History & Observations

Time (HST) Temp. Dew Point Humidity Pressure Visibility Wind Dir Wind Speed Gust Speed Precip Events Conditions
12:56 AM 66.9 °F 61.9 °F 84% 30.17 in 10.0 mi NE 18.4 mph 24.2 mph 0.00 in   Mostly Cloudy
1:56 AM 65.8 °F 61.0 °F 84% 30.15 in 10.0 mi NE 18.4 mph - 0.00 in   Clear
2:56 AM 68.0 °F 57.9 °F 70% 30.14 in 10.0 mi ENE 16.1 mph 25.3 mph N/A   Clear
3:56 AM 68.0 °F 57.9 °F 70% 30.12 in 10.0 mi ESE 15.0 mph 23.0 mph N/A   Clear
4:56 AM 66.9 °F 59.9 °F 78% 30.14 in 10.0 mi East 12.7 mph - N/A   Mostly Cloudy
5:03 AM 66.2 °F 60.8 °F 83% 30.19 in 10.0 mi ENE 12.7 mph - N/A   Partly Cloudy
5:56 AM 65.8 °F 59.0 °F 79% 30.16 in 10.0 mi ENE 10.4 mph - N/A   Clear
6:56 AM 64.9 °F 59.9 °F 84% 30.18 in 10.0 mi East 6.9 mph 16.1 mph N/A   Partly Cloudy
7:56 AM 68.0 °F 61.9 °F 81% 30.19 in 10.0 mi NE 13.8 mph - N/A   Clear
8:56 AM 70.9 °F 61.9 °F 73% 30.19 in 10.0 mi ENE 11.5 mph - N/A   Clear
9:56 AM 72.0 °F 61.9 °F 70% 30.19 in 10.0 mi NE 13.8 mph - N/A   Clear
10:28 AM 71.6 °F 62.6 °F 73% 30.25 in 10.0 mi NNE 9.2 mph - N/A   Mostly Cloudy
10:56 AM 71.6 °F 62.6 °F 73% 30.24 in 10.0 mi NNE 9.2 mph - N/A   Mostly Cloudy
11:56 AM 72.9 °F 63.0 °F 71% 30.18 in 10.0 mi NE 15.0 mph - N/A   Scattered Clouds
12:56 PM 75.9 °F 63.0 °F 64% 30.14 in 10.0 mi NE 21.9 mph 26.5 mph N/A   Scattered Clouds
1:56 PM 75.9 °F 63.0 °F 64% 30.12 in 10.0 mi NE 24.2 mph 34.5 mph N/A   Partly Cloudy
2:56 PM 74.8 °F 63.0 °F 66% 30.10 in 10.0 mi NE 24.2 mph 28.8 mph N/A   Partly Cloudy
3:56 PM 72.9 °F 63.0 °F 71% 30.10 in 10.0 mi NE 21.9 mph 33.4 mph N/A   Partly Cloudy
4:56 PM 70.9 °F 61.9 °F 73% 30.10 in 10.0 mi NE 23.0 mph 34.5 mph N/A   Clear
5:56 PM 66.9 °F 61.9 °F 84% 30.13 in 10.0 mi NE 26.5 mph 32.2 mph N/A   Scattered Clouds
6:27 PM 66.2 °F 62.6 °F 88% 30.18 in 10.0 mi ENE 20.7 mph 32.2 mph N/A   Mostly Cloudy
6:56 PM 65.8 °F 61.0 °F 84% 30.16 in 10.0 mi ENE 15.0 mph 24.2 mph N/A   Mostly Cloudy
7:10 PM 66.2 °F 60.8 °F 83% 30.20 in 10.0 mi ENE 19.6 mph 33.4 mph N/A   Scattered Clouds
7:29 PM 64.4 °F 60.8 °F 88% 30.20 in - NE 26.5 mph 32.2 mph N/A   Mostly Cloudy
7:41 PM 64.4 °F 60.8 °F 88% 30.20 in 10.0 mi NE 23.0 mph 29.9 mph N/A   Partly Cloudy
7:56 PM 65.8 °F 59.9 °F 81% 30.17 in 10.0 mi ENE 20.7 mph 26.5 mph N/A   Partly Cloudy
8:03 PM 64.4 °F 60.8 °F 88% 30.21 in - ENE 19.6 mph 26.5 mph N/A   Mostly Cloudy
8:15 PM 64.4 °F 59.0 °F 83% 30.21 in - NE 25.3 mph 33.4 mph N/A   Clear
8:56 PM 64.9 °F 59.0 °F 81% 30.17 in - NE 25.3 mph 33.4 mph N/A   Clear
9:56 PM 64.9 °F 59.9 °F 84% 30.18 in - NE 21.9 mph 32.2 mph N/A   Clear
10:56 PM 64.9 °F 59.9 °F 84% 30.18 in - NE 24.2 mph 29.9 mph N/A   Clear
11:56 PM 64.9 °F 57.9 °F 78% 30.18 in - NE 23.0 mph - N/A   Clear